Location: Beuvrequen
(50.8014°N, 1.6652°E)
Time: 23:34:45
(UTC+00:00)

MOS 1-B Rocket - Visible Passes

Search period start: 28 May 2022 00:00
Search period end: 07 June 2022 00:00
Orbit: 891 x 1605 km, 99.0° (Epoch: 28 May)

Date Brightness Start Highest point End Pass type
(mag) Time Alt. Az. Time Alt. Az. Time Alt. Az.
28 May 5.8 01:38:50 10° ESE 01:43:38 30° ENE 01:48:43 10° N visible
29 May 5.9 01:35:39 10° ESE 01:40:24 29° ENE 01:45:28 10° N visible
30 May 5.9 01:32:28 10° ESE 01:37:12 28° NE 01:42:14 10° N visible
31 May 6.0 01:29:18 10° ESE 01:33:59 27° NE 01:39:00 10° N visible
01 Jun 6.1 01:26:07 10° ESE 01:30:46 27° NE 01:35:46 10° N visible
02 Jun 6.1 01:22:56 10° ESE 01:27:34 26° NE 01:32:33 10° N visible
03 Jun 6.2 01:19:46 10° ESE 01:24:21 25° NE 01:29:20 10° N visible
04 Jun 6.2 01:16:36 10° ESE 01:21:10 25° NE 01:26:08 10° N visible
05 Jun 6.3 01:13:25 10° ESE 01:17:58 24° NE 01:22:55 10° N visible
06 Jun 6.3 01:10:15 10° ESE 01:14:47 23° NE 01:19:42 10° N visible
